EW7888 Folignano IT current weather conditions

sailwx.info

Wind from 078

Air temperature 11.7° C
Dewpoint 8.3° C

Last reported at 2019-Dec-15 15:45 UTC.
Time now 2019-Dec-15 16:26 UTC

Location: N 42°50' E 013°38'.
View on Google Maps.

See reports from other nearby stations

  
Tides and Currents Weather Stations Pressure Air Temp Water Temp Dewpoint Dewpoint Depression Visibility Wind Speed Wind Dir Waves Ship Positions
date/time (UTC)wind fromknots sea level pressurealtimeterstation pressurevisibilityair tempwater tempwave heightnotes
2019-Dec-15 15:45 078 11.7
2019-Dec-15 15:30 078 11.7
2019-Dec-15 15:15 072 12.2
2019-Dec-15 15:01 073 13.3
2019-Dec-15 14:45 072 14.4
2019-Dec-15 14:30 073 15.0
2019-Dec-15 14:15 072 15.0
2019-Dec-15 14:00 072 15.0
2019-Dec-15 13:45 072 15.6
2019-Dec-15 13:30 072 15.6
2019-Dec-15 13:15 073 16.1
2019-Dec-15 13:00 073 16.1
2019-Dec-15 12:45 073 16.1
2019-Dec-15 12:30 066 16.1
2019-Dec-15 12:15 072 16.1
2019-Dec-15 12:00 150 1 gusting 4 16.1
2019-Dec-15 11:45 176 0 gusting 4 16.7
2019-Dec-15 11:31 176 0 gusting 3 16.1
2019-Dec-15 11:16 182 2 gusting 4 16.1
2019-Dec-15 11:02 202 1 gusting 4 15.6
2019-Dec-15 10:47 202 16.1
2019-Dec-15 10:31 202 15.6
2019-Dec-15 10:18 202 0 gusting 3 15.0
2019-Dec-15 10:01 202 1 gusting 3 14.4
2019-Dec-15 09:49 202 15.0
2019-Dec-15 09:31 204 15.0
2019-Dec-15 09:16 203 0 gusting 2 13.3
2019-Dec-15 09:01 203 0 gusting 1 13.3
2019-Dec-15 08:47 203 12.8
2019-Dec-15 08:32 204 0 gusting 2 11.7
2019-Dec-15 08:16 204 10.6
2019-Dec-15 08:00 203 10.6
2019-Dec-15 07:45 204 8.9
2019-Dec-15 07:31 204 8.9
2019-Dec-15 07:16 204 8.9
2019-Dec-15 07:00 204 1 gusting 4 8.3
2019-Dec-15 06:45 204 8.3
2019-Dec-15 06:30 203 2 gusting 4 8.9
2019-Dec-15 06:15 203 3 gusting 6 8.9
2019-Dec-15 06:00 197 0 gusting 5 9.4
2019-Dec-15 05:45 172 9.4
2019-Dec-15 05:30 172 0 gusting 4 8.9
2019-Dec-15 05:15 165 1 gusting 3 9.4
2019-Dec-15 05:00 165 1 gusting 6 9.4
2019-Dec-15 04:45 259 1 gusting 4 9.4
2019-Dec-15 04:30 259 9.4
2019-Dec-15 04:15 259 9.4
2019-Dec-15 04:02 259 0 gusting 2 8.9
2019-Dec-15 03:48 259 2 gusting 6 8.9
2019-Dec-15 03:32 263 2 gusting 4 8.3
2019-Dec-15 03:18 263 8.3
2019-Dec-15 03:01 263 7.8
2019-Dec-15 02:46 263 7.8
2019-Dec-15 02:32 264 3 gusting 6 7.2
2019-Dec-15 02:17 268 3 gusting 7 6.7
2019-Dec-15 02:02 244 7.2
2019-Dec-15 01:46 226 2 gusting 4 7.2
2019-Dec-15 01:31 226 0 gusting 4 7.2
2019-Dec-15 01:16 226 0 gusting 2 7.2
2019-Dec-15 01:01 226 7.2
2019-Dec-15 00:47 226 0 gusting 4 7.2
2019-Dec-15 00:31 226 7.2
2019-Dec-15 00:18 226 7.8
2019-Dec-15 00:00 226 1 gusting 6 7.8
2019-Dec-14 23:46 181 7.8
2019-Dec-14 23:31 182 7.8
2019-Dec-14 23:16 182 1 gusting 4 7.8
2019-Dec-14 23:01 182 7.8
2019-Dec-14 22:46 170 8.3
2019-Dec-14 22:30 170 8.3
2019-Dec-14 22:15 169 3 gusting 4 8.3
2019-Dec-14 22:02 165 8.9
2019-Dec-14 21:45 165 4 gusting 6 8.3
2019-Dec-14 21:30 169 8.3
2019-Dec-14 21:00 185 7.8
2019-Dec-14 20:45 185 0 gusting 5 7.8
2019-Dec-14 20:30 157 0 gusting 7 7.8
2019-Dec-14 20:16 159 2 gusting 4 8.3
2019-Dec-14 20:00 169 0 gusting 2 8.3
2019-Dec-14 19:45 169 8.3
2019-Dec-14 19:30 169 7.8
2019-Dec-14 19:15 170 8.3
2019-Dec-14 19:00 170 8.3
2019-Dec-14 18:45 170 8.3
2019-Dec-14 18:30 170 8.3
2019-Dec-14 18:15 170 2 gusting 6 8.3
2019-Dec-14 18:00 184 8.9
2019-Dec-14 17:47 184 1 gusting 4 8.9
2019-Dec-14 17:31 150 0 gusting 3 8.9
2019-Dec-14 17:18 150 9.4
2019-Dec-14 17:01 150 9.4
2019-Dec-14 16:46 150 2 gusting 5 9.4
2019-Dec-14 16:31 150 0 gusting 3 10.0
2019-Dec-14 16:18 150 2 gusting 5 10.6
2019-Dec-14 16:01 161 2 gusting 5 10.6
2019-Dec-14 15:46 144 0 gusting 4 10.0
2019-Dec-14 15:32 146 4 gusting 6 10.6
2019-Dec-14 15:17 119 10.6
2019-Dec-14 15:01 045 11.1
2019-Dec-14 14:46 044 1 gusting 4 11.7
2019-Dec-14 14:31 042 12.8
2019-Dec-14 14:17 042 0 gusting 3 13.3
2019-Dec-14 14:01 042 1 gusting 5 13.9
2019-Dec-14 13:46 042 1 gusting 4 13.9
2019-Dec-14 13:30 042 1 gusting 4 13.9
2019-Dec-14 13:15 042 13.9
2019-Dec-14 13:00 042 1 gusting 5 13.9
2019-Dec-14 12:45 041 0 gusting 4 13.9
2019-Dec-14 12:30 042 13.9
2019-Dec-14 12:16 042 1 gusting 6 13.3
2019-Dec-14 12:01 042 1 gusting 4 13.3
2019-Dec-14 11:45 042 2 gusting 4 13.3
2019-Dec-14 11:30 041 13.3
2019-Dec-14 11:15 042 2 gusting 4 12.8
2019-Dec-14 11:01 042 2 gusting 4 12.8
2019-Dec-14 10:45 355 1 gusting 4 12.8
2019-Dec-14 10:30 279 1 gusting 4 12.8
2019-Dec-14 10:15 245 0 gusting 2 12.8
2019-Dec-14 10:00 245 0 gusting 3 12.2
2019-Dec-14 09:45 245 12.2
2019-Dec-14 09:30 245 0 gusting 2 11.1
2019-Dec-14 09:01 245 10.0
2019-Dec-14 08:47 245 0 gusting 3 9.4
2019-Dec-14 08:32 245 0 gusting 4 8.3
2019-Dec-14 08:16 246 2 gusting 7 8.3
2019-Dec-14 08:01 257 1 gusting 6 7.2
2019-Dec-14 07:48 276 4 gusting 9 7.2
2019-Dec-14 07:31 261 2 gusting 6 7.2
2019-Dec-14 07:16 255 3 gusting 7 7.8
2019-Dec-14 07:01 259 0 gusting 3 8.3
2019-Dec-14 06:46 259 0 gusting 4 8.9
2019-Dec-14 06:30 259 1 gusting 4 8.9
2019-Dec-14 06:16 259 1 gusting 4 8.9
2019-Dec-14 06:00 256 1 gusting 13 9.4
2019-Dec-14 05:45 262 9 gusting 17 9.4
2019-Dec-14 05:30 268 4 gusting 14 9.4
2019-Dec-14 05:15 253 7 gusting 13 9.4
2019-Dec-14 05:00 257 8 gusting 15 9.4
2019-Dec-14 04:45 249 9 gusting 19 9.4
2019-Dec-14 04:30 243 8 gusting 21 9.4
2019-Dec-14 04:15 272 4 gusting 18 9.4
2019-Dec-14 04:02 280 9 gusting 19 9.4
2019-Dec-14 03:48 263 7 gusting 24 8.9
2019-Dec-14 03:16 236 14 gusting 24 8.9
2019-Dec-14 03:01 234 11 gusting 22 8.3
2019-Dec-14 02:47 295 9 gusting 22 8.3
2019-Dec-14 02:32 259 6 gusting 19 7.8
2019-Dec-14 02:16 321 6 gusting 20 7.8
2019-Dec-14 02:01 300 7 gusting 17 7.8
2019-Dec-14 01:47 286 8 gusting 25 8.3
2019-Dec-14 01:31 224 13 gusting 30 8.3
2019-Dec-14 01:17 265 14 gusting 35 8.3
2019-Dec-14 01:00 252 20 gusting 45 8.9
2019-Dec-14 00:45 300 20 gusting 41 8.9
2019-Dec-14 00:31 275 10 gusting 23 8.9
2019-Dec-14 00:15 309 15 gusting 31 8.9
2019-Dec-14 00:01 242 13 gusting 33 9.4
2019-Dec-13 23:46 262 11 gusting 32 9.4
2019-Dec-13 23:30 248 13 gusting 19 9.4
2019-Dec-13 23:16 238 13 gusting 27 8.9
2019-Dec-13 23:00 284 5 gusting 15 8.9
2019-Dec-13 22:46 314 4 gusting 15 8.3
2019-Dec-13 22:31 298 10 gusting 26 7.8
2019-Dec-13 22:15 300 4 gusting 7 7.8
2019-Dec-13 22:02 302 2 gusting 8 7.2
2019-Dec-13 21:45 291 3 gusting 10 7.2
2019-Dec-13 21:30 322 0 gusting 7 7.2
2019-Dec-13 21:15 307 3 gusting 7 7.2
2019-Dec-13 21:00 271 1 gusting 7 7.2
2019-Dec-13 20:45 269 1 gusting 11 7.2
2019-Dec-13 20:30 319 6 gusting 10 7.2
2019-Dec-13 20:15 261 6 gusting 13 7.2
2019-Dec-13 20:00 261 4 gusting 11 7.2
2019-Dec-13 19:46 241 6.7
2019-Dec-13 19:30 099 6.7
2019-Dec-13 19:15 099 7.2
2019-Dec-13 19:00 066 8.3
2019-Dec-13 18:45 331 0 gusting 15 9.4
2019-Dec-13 18:30 274 9 gusting 26 10.0
2019-Dec-13 18:15 264 17 gusting 27 10.0
2019-Dec-13 18:00 254 13 gusting 23 10.0
2019-Dec-13 17:45 346 12 gusting 32 9.4
2019-Dec-13 17:30 272 11 gusting 21 8.3
2019-Dec-13 17:15 235 10 gusting 26 8.3
2019-Dec-13 17:00 223 10 gusting 19 8.3
2019-Dec-13 16:45 207 20 gusting 39 7.8
2019-Dec-13 16:31 285 1 gusting 6 7.2
2019-Dec-13 16:19 285 7.2
2019-Dec-13 16:02 292 0 gusting 12 7.2